Weather in Mysy

Russia / Udmurt Republic     58°08′09″N   53°50′57″E
temp.,
°C
wind,
m/s
gust,
m/s
humid.,
%
clouds,
%
prec.,
mm/h
press.,
hPa
HPBL,
m
27 january, wed
wed2701:00−4ssw489599 0.1 1024432
04:00−8ssw4895100 0.1 1024351
07:00−11ssw3796100 0.1 1024247
10:00−9ssw4893100 0.3 1024304
13:00−4s4994100 0.1 1023467
16:00−3ssw51292100 0.1 1022721
19:00−2ssw61390100 0.1 1020773
22:00−3ssw61291100 0.1 1018749
28 january, thu
thu2801:00−4ssw61392100 0.1 1018651
04:00−5ssw51395100 1.4 1017571
07:00−5ssw61395100 2.3 1016584
10:00−5sw51294100 4.4 1016623
13:00−4sw51193100 0.8 1017518
16:00−3sw4994100 1.1 1018451
19:00−4ssw3795100 0.2 1019333
22:00−5ssw3796100 0.8 1019297
29 january, fri
fri2901:00−6s3795100 0.0 1020273
04:00−9s2696100 0.1 1020194
07:00−10sse259698 0.0 1020139
10:00−10sse369597 0.0 1019194
13:00−7se359298 0.0 1018249
16:00−8ese379499 0.0 1016250
19:00−8ese4994100 0.0 1014268
22:00−7ese41189100 0.0 1012297
30 january, sat
sat3001:00−5se41287100 0.0 1010484
04:00−4sse41095100 1.4 1010674
07:00−6sse41094100 0.5 1010492
10:00−6sse41093100 0.8 1010531
13:00−4sse4994100 0.1 1010579
16:00−4se51192100 0.2 1009624
19:00−4sse61395100 0.4 1007785
22:00−2sse61395100 1.0 1006920
31 january, sun
sun3101:00−3s51294100 0.5 1007859
04:00−2ssw51193100 0.8 1008928
07:00−4ssw41195100 0.1 1009622
10:00−4s41292100 0.1 1009702
13:00−2s51089100 0.0 1009830
16:00−1sse61396100 1.7 10061017
19:000ssw71398100 2.1 10041114
22:00−1ssw71392100 3.0 10041077